Find Starlink 5274

NORAD ID: 55395 Int'l Des: 2023-014 Owner: SPXS Country: US Constellation: starlink operational
LEOCIRCULAR

当前视图

正在加载3D地球...

About Starlink 5274

Starlink 5274 (NORAD 55395) is a starlink constellation satellite (v1.5) launched Jan 31, 2023 by SPXS of US. It operates in LEO, CIRCULAR orbit with a mass of 305.00 kg.

即将过境

Passes for default location (London). Set your location on the main map for personalized predictions.

高度历史

Loading altitude history...

两行轨道根数

1 55395U 23014E 26224.60208102 .00000155 00000-0 20785-4 0 9999
2 55395 70.0003 31.1755 0002753 268.5941 91.4903 14.98322811195418
Epoch: Aug 12, 2026 • Age: 10 hours

当前状态

高度 576.8 km
远地点 / 近地点 N/A
速度 7.58 km/s
星下点 32.72°N, 135.45°W
发射日期 Jan 31, 2023
运行时间 3.5 years
类型 internet

技术详情

分类 Payload
质量 305.00 kg
干质量 290.00 kg
总质量 305.00 kg
长度 0.20 m
直径 2.80 m
跨度 9.00 m
形状 Box + pan
制造商 SPXS
平台类型 Starlink
阶段状态 In Orbit
所有者/国家 SPXS/US

Most Searched